This is the latest recevied weather packets stored in our database for station/object HP3ICC-23. If no packets are shown the sender has not sent any weather packets the latest 10 day(s).
| Time | Temp. | Humidity | Pressure | Rain* | Wind** | Luminosity | Snow |
|---|---|---|---|---|---|---|---|
| 1777856511 | 15° C | 77% | 1013 hPa | 0 mm | - | - | - |
| 1777855371 | 15.56° C | 77% | 1013 hPa | 0 mm | - | - | - |
| 1777855311 | 15.56° C | 77% | 1013 hPa | 0 mm | - | - | - |
| 1777854170 | 15° C | 82% | 1011 hPa | 0 mm | - | - | - |
| 1777854110 | 15° C | 82% | 1011 hPa | 0 mm | - | - | - |
| 1777852970 | 15.56° C | 82% | 1012 hPa | 0 mm | - | - | - |
| 1777852910 | 15.56° C | 82% | 1012 hPa | 0 mm | - | - | - |
| 1777851769 | 16.11° C | 82% | 1012 hPa | 0 mm | - | - | - |
| 1777851709 | 16.11° C | 82% | 1012 hPa | 0 mm | - | - | - |
| 1777850569 | 16.67° C | 82% | 1010 hPa | 0.25 mm | - | - | - |
| 1777850509 | 16.67° C | 82% | 1010 hPa | 0.25 mm | - | - | - |
| 1777849369 | 17.22° C | 82% | 1011 hPa | 0.51 mm | - | - | - |
| 1777849309 | 17.22° C | 82% | 1011 hPa | 0.51 mm | - | - | - |
| 1777848168 | 17.78° C | 82% | 1011 hPa | 1.02 mm | - | - | - |
| 1777848108 | 17.78° C | 82% | 1011 hPa | 1.02 mm | - | - | - |
| 1777846968 | 18.33° C | 82% | 1010 hPa | 1.27 mm | - | - | - |
| 1777846907 | 18.33° C | 82% | 1010 hPa | 1.27 mm | - | - | - |
| 1777845767 | 18.89° C | 82% | 1011 hPa | 1.02 mm | - | - | - |
| 1777845707 | 18.89° C | 82% | 1011 hPa | 1.02 mm | - | - | - |
| 1777844567 | 16.67° C | 73% | 1011 hPa | 1.02 mm | - | - | - |
| 1777844506 | 16.67° C | 73% | 1011 hPa | 1.02 mm | - | - | - |
| 1777843366 | 17.78° C | 73% | 1010 hPa | 0.51 mm | - | - | - |
| 1777843306 | 17.78° C | 73% | 1010 hPa | 0.51 mm | - | - | - |
| 1777842166 | 17.78° C | 74% | 1011 hPa | 0 mm | - | - | - |
| 1777842106 | 17.78° C | 74% | 1011 hPa | 0 mm | - | - | - |
* Rain latest hour (hover to see other rain measurements)
** Current wind speed in m/s (hover to see current wind gust speed)